• MPC Preparation (Info)

  • MPEC 2010-R07 : 2010 RC

    The following Minor Planet Electronic Circular may be linked-to from your own Web pages, but must not otherwise be redistributed electronically.

    A form allowing access to any MPEC is at the bottom of this page.


    Read MPEC 2010-R06 Read MPEC 2010-R08


    M.P.E.C. 2010-R07                                Issued 2010 Sept. 2, 12:43 UT
    
         The Minor Planet Electronic Circulars contain information on unusual
             minor planets and routine data on comets.  They are published
       on behalf of Commission 20 of the International Astronomical Union by the
              Minor Planet Center, Smithsonian Astrophysical Observatory,
                              Cambridge, MA 02138, U.S.A.
    
                 Prepared using the Tamkin Foundation Computer Network
    
                                  MPC@CFA.HARVARD.EDU
           URL https://www.minorplanetcenter.org/iau/mpc.html  ISSN 1523-6714
    
                                        2010 RC
    
    Observations:
         K10R00C* C2010 09 01.30611 22 32 40.64 -05 29 16.1          19.1   ER007704
         K10R00C  C2010 09 01.31765 22 33 01.88 -05 30 27.8          19.5   ER007704
         K10R00C  C2010 09 01.34065 22 33 43.91 -05 32 47.2          19.4   ER007704
         K10R00C  C2010 09 01.35261 22 34 05.86 -05 34 01.1          19.4   ER007704
         K10R00C  C2010 09 02.29420 23 02 49.84 -07 01 17.5          19.2 V ER007G96
         K10R00C  C2010 09 02.30103 23 03 00.75 -07 01 52.0          19.4 V ER007G96
         K10R00C  C2010 09 02.30792 23 03 11.59 -07 02 26.3          20.2 V ER007G96
         K10R00C  C2010 09 02.31487 23 03 22.71 -07 03 01.3          19.4 V ER007G96
    
    Observer details:
    704 Lincoln Laboratory ETS, New Mexico.  Observers M. Blythe, G. Spitz,
        R. Brungard, J. Paige, P. Festler.  1.0-m f/2.15 reflector + CCD.
    G96 Mt. Lemmon Survey.  Observer A. Boattini.  Measurers J. D. Ahern,
        E. C. Beshore, A. Boattini, G. J. Garradd, A. R. Gibbs, A. D. Grauer,
        R. E. Hill, R. A. Kowalski, S. M. Larson, R. H. McNaught.  1.5-m reflector
        + CCD.
    
    Orbital elements:
    2010 RC                                                  Earth MOID = 0.0216 AU
    Epoch 2010 July 23.0 TT = JDT 2455400.5                 MPC
    M 349.35240              (2000.0)            P               Q
    n   0.39167754     Peri.  164.17058     +0.80627614     +0.59055319
    a   1.8500506      Node   159.51901     -0.55276467     +0.77272264
    e   0.4462435      Incl.    5.59977     -0.21064187     +0.23269434
    P   2.52           H   26.6           G   0.15           U   6
    Residuals in seconds of arc
    100901 704  0.1+  0.3+    100901 704  0.3+  0.3-    100902 G96  0.9-  0.2+
    100901 704  1.3+  0.4-    100902 G96  0.3-  0.0     100902 G96  0.7+  0.1-
    100901 704  0.4-  0.9+    100902 G96  0.6+  0.1-
    
    Ephemeris:
    2010 RC                  a,e,i = 1.85, 0.45, 6                   q = 1.0245
    Date    TT    R. A. (2000) Decl.     Delta      r     Elong.  Phase     V
    2010 09 01    22 22.55   -04 53.2    0.0255   1.035   174.4     5.4    19.2
    2010 09 03    23 21.70   -07 52.3    0.0296   1.038   171.4     8.3    19.6
    2010 09 05    00 04.70   -09 43.0    0.0352   1.042   162.4    17.0    20.3
    2010 09 07    00 35.11   -10 49.1    0.0418   1.046   156.4    22.7    20.9
    2010 09 09    00 56.83   -11 29.2    0.0489   1.051   152.6    26.1    21.3
    2010 09 11    01 12.66   -11 54.3    0.0565   1.056   150.3    28.2    21.7
    
    Sonia Keys                   (C) Copyright 2010 MPC           M.P.E.C. 2010-R07
    

    Read MPEC 2010-R06 Read MPEC 2010-R08


    MPEC number:

    Enter an MPEC number in one of the following forms:

    • 1997-B01 (the full form)
    • J97B01 (the packed version of the full form)
    • B01 (the abbreviated form)